Regional Weather Roundup
Issued by NWS

Home | Current Version | Previous Version | Graphics & Text | Print | Product List | Glossary On
Versions: 1 2 3 4 5 6 7 8 9 10 11 12 13 14 15 16 17 18 19 20 21 22 23 24 25 26 27 28 29 30 31 32 33 34 35 36 37 38 39 40 41 42 43 44 45 46 47 48 49 50
000
ASUS45 KBOU 191707
RWRCO

WEATHER ROUNDUP FOR COLORADO
NATIONAL WEATHER SERVICE DENVER/BOULDER CO
1100 AM MDT FRI SEP 19 2014

NOTE: "FAIR" INDICATES FEW OR NO CLOUDS BELOW 12000 FEET WITH NO
SIGNIFICANT WEATHER AND/OR OBSTRUCTIONS TO VISIBILITY.

COZ001>005-013-030-031-191800-
...NORTHWEST COLORADO...

CITY           SKY/WX    TMP DP  RH WIND       PRES   REMARKS
CRAIG          SUNNY     69  45  41 NW5       30.15F
HAYDEN         SUNNY     70  37  30 E5        30.16F
MEEKER         SUNNY     70  42  36 CALM      30.16F
MOUNT WERNER   NOT AVBL
STEAMBOAT SPGS SUNNY     65  40  41 SE5       30.18F
WALDEN         SUNNY     63  37  39 E3        30.25F
$$

COZ006>008-011-191800-
...WEST CENTRAL VALLEYS...

CITY           SKY/WX    TMP DP  RH WIND       PRES   REMARKS
GRAND JUNCTION SUNNY     76  43  30 S8        30.04F
MONTROSE       MOSUNNY   74  47  38 VRB3      30.12S
EAGLE          NOT AVBL
RIFLE          SUNNY     70  42  36 VRB3      30.11F
DELTA          MOSUNNY   75  42  31 E3        30.08F
NUCLA          MOSUNNY   68  45  42 N3        30.17S
$$

COZ017>023-064>068-191800-
...SOUTHWEST COLORADO...

CITY           SKY/WX    TMP DP  RH WIND       PRES   REMARKS
DURANGO        SUNNY     71  50  47 VRB3      30.18F
CORTEZ         SUNNY     74  48  39 CALM      30.13S
PAGOSA SPRINGS SUNNY     68  43  41 SW3       30.24F
TELLURIDE      NOT AVBL
WOLF CREEK PAS SUNNY     54  32  43 N9G23     30.51S
$$

COZ009-010-012-014-032>034-037-058>063-191800-
...CENTRAL COLORADO...

CITY           SKY/WX    TMP DP  RH WIND       PRES   REMARKS
ASPEN          SUNNY     71  38  29 N5        30.23F
BUENA VISTA    SUNNY     70  33  25 CALM      30.23F
COPPER MTN     NOT AVBL
BERTHOUD PASS  FAIR      50  48  93 NE3       30.58S
COTTONWOOD PAS SUNNY     68  30  24 CALM      30.37F
GUNNISON       SUNNY     61  34  36 CALM      30.29S
KREMMLING      SUNNY     63  32  31 CALM      30.24S
LEADVILLE      SUNNY     63  33  32 VRB5      30.37S
MONARCH PASS   SUNNY     52  32  46 W8        30.62S
SALIDA         SUNNY     69  34  27 CALM      30.29S
SUNLIGHT       SUNNY     59  41  51 CALM      30.47S
WILKERSON PASS NOT AVBL
$$

COZ069>075-191800-
...SAN LUIS VALLEY/SANGRE DE CRISTO MOUNTAINS...

CITY           SKY/WX    TMP DP  RH WIND       PRES   REMARKS
ALAMOSA        SUNNY     64  43  46 VRB3      30.23F
LA VETA PASS   SUNNY     59  41  51 SW6       30.38S
SAGUACHE       NOT AVBL
$$

COZ035-036-038>040-191800-
...NORTHERN COLORADO FRONT RANGE...

CITY           SKY/WX    TMP DP  RH WIND       PRES   REMARKS
DENVER INTL AP MOSUNNY   78  42  27 E12       30.05R
DMNS CITY PARK   N/A     76  43  30 N5G13     30.05S
AURORA         MOSUNNY   76  42  28 NE12      30.07R
FRONT RANGE AP MOSUNNY   77  41  27 NE15      30.06R
ERIE MUNI ARPT SUNNY     77  42  29 CALM      30.03F
BOULDER MUN AP SUNNY     73  45  35 S3        30.04F
CENTENNIAL     MOSUNNY   76  40  27 N15       30.08R
BROOMFIELD     MOSUNNY   73  45  35 N7        30.07S
FORT COLLINS   SUNNY     75  46  35 SW7       30.02S
LONGMONT       SUNNY     77  46  33 SW5       30.04S
$$

COZ041-046-047-076>085-087-088-191800-
...PIKES PEAK/PALMER DIVIDE AND SOUTHERN FOOTHILLS...

CITY           SKY/WX    TMP DP  RH WIND       PRES   REMARKS
COLO. SPRINGS  MOSUNNY   78  38  23 CALM      30.09S
A. F. ACADEMY  SUNNY     78  38  23 N3        30.10S
ELLICOTT       NOT AVBL
FALCON         SUNNY     77  35  21 SW5       30.14S
FORT CARSON    SUNNY     76  46  35 SE5       30.06S
LIMON          SUNNY     77  50  38 S7        30.03S
MONUMENT HILL  SUNNY     77  34  20 N12G18    30.14R
TRINIDAD       SUNNY     78  47  33 W12       30.06F
$$

COZ042>045-048>051-090-091-191800-
...NORTHEAST COLORADO...

CITY           SKY/WX    TMP DP  RH WIND       PRES   REMARKS
GREELEY ARPT   SUNNY     82  45  26 N13G20    29.99F
AKRON          SUNNY     78  44  29 NW8       29.99R
BURLINGTON     SUNNY     80  55  42 S14G25    29.97F
WRAY           SUNNY     85  55  34 SW8G16    29.93F
STERLING       SUNNY     82  54  36 N3        29.94F
HOLYOKE        SUNNY     84  52  32 CALM      29.93
FORT MORGAN    SUNNY     83  42  22 N13       29.98F
$$

COZ086-089-092>099-191800-
...SOUTHEAST COLORADO...

CITY           SKY/WX    TMP DP  RH WIND       PRES   REMARKS
PUEBLO         SUNNY     72  54  53 SE5       29.99F
LA JUNTA       SUNNY     78  52  40 SW9       29.97F
LAMAR          SUNNY     83  57  41 SW15G22   29.94F
SPRINGFIELD      N/A     77  58  51 S21G28    30.02S
$$


USA.gov is the U.S. government's official web portal to all federal, state and local government web resources and services.